SL-8 R/B (20775 NORAD) Tracking and Keplerian Element Data

This shows tracking and keplerian element data for the satellite.

Feedback or suggestion? Click here.




ElementValue
Catalog20775
NameSL-8 R/B
Epoch Orbit42687
Epoch Day348.9618507
Epoch Year2018
RAAN320.0045
Inclination82.9272
Eccentricity0.0581834
Argument of Perigee98.0091
Mean Anonmoly268.7504
Mean Motion14.32706676
Decay Rate7.74E-06
L11 20775U 90078B 18348.96185070 .00000774 00000-0 34948-4 0 9995
L22 20775 82.9272 320.0045 0581834 98.0091 268.7504 14.32706676426874

Live tracking and technical data element details for SL-8 R/B (NORAD 20775). SL-8 R/B can be tracked NOW for your location showing map with azimuth and elevation plus other details from your city location.

Track the satellite on the map from your city or location and see movement details for azimuth, elevation, latitude, longitude, range, height, and movement on the map or in text.







IsCatalogInMostPopularTable: catalog: 20775, numindb: 37
Update: records affected: 1



GetName: 20775 SL-8 R/B

Hit Count: updated at: Sat, 15 Dec 2018 13:33:21 GMT